User: anonymous   Login
Location: Unspecified
(0.0000°N, 0.0000°E)
Time: 20:46:27
(UTC+00:00)
Language:

STARLINK-32020 - Orbit

View from above orbital plane
View from above orbital plane
View from above satellite
View from above satellite

Ground track
Ground track

The orbit is defined by the following mean orbital elements,

1 60201U          26145.52902818 +.00000000 +00000-0 +25022-4 0 00000
2 60201  53.1612 325.3315 0001013  95.4638 264.6478 15.30192789    03
Epoch (UTC): 25 May 2026 12:41:48
Eccentricity: 0.0001013
inclination: 53.1612°
perigee height: 475 km
apogee height: 476 km
right ascension of ascending node: 325.3315°
argument of perigee: 95.4638°
revolutions per day: 15.30192789
mean anomaly at epoch: 264.6478°

The dashed part of the orbit path shows where the satellite is in the earth's shadow,  

DLR